Port Angeles, WA
on Monday, January 7, 2013

Monday
Previous Day Next Day
Daily Summary
 ActualAverageRecord
Temperature
Mean Temperature °F °F  
Max Temperature 53°F 43°F 54°F (1962)
Min Temperature 39°F 32°F 18°F (1973)
Degree Days
Heating Degree Days 19    
Moisture
Dew Point 39°F   
Average Humidity 80    
Maximum Humidity 97    
Minimum Humidity 61    
Precipitation
Precipitation 0.00 in in in ()
Wind
Wind Speed 4 mph   
Max Wind Speed 16 mph   
Max Gust Speed 25 mph   
Visibility 10 miles   
Events Rain   
Averages and records for this station are not official NWS values.
Key: T is trace of precipitation, MM is missing value
Source: NWS Daily Summary
Seasonal Weather Averages
Time(PST)TemperatureDew PointHumidity Pressure Visibility Wind DirectionWind SpeedGust SpeedPrecipitationEvents Conditions
12:53 AM 39.9°F 37.9°F 93% 29.88 in 10.0 miles Calm Calm - 0.00 in Rain Light Rain
1:53 AM 39.9°F 39.0°F 97% 29.86 in 10.0 miles Calm Calm - 0.00 in Rain Light Rain
2:53 AM 39.9°F 37.9°F 93% 29.86 in 10.0 miles Calm Calm - 0.00 in Rain Light Rain
3:53 AM 39.9°F 37.9°F 93% 29.83 in 10.0 miles SW 4.6 mph - 0.00 in Rain Light Rain
4:53 AM 39.9°F 37.9°F 93% 29.79 in 10.0 miles Calm Calm - 0.00 in Rain Light Rain
5:53 AM 39.9°F 39.0°F 97% 29.78 in 10.0 miles Calm Calm - 0.00 in Rain Light Rain
6:53 AM 39.9°F 39.0°F 97% 29.77 in 10.0 miles SSE 4.6 mph - 0.00 in   Overcast
7:53 AM 41.0°F 39.0°F 93% 29.79 in 10.0 miles Calm Calm - N/A   Overcast
8:53 AM 41.0°F 39.0°F 93% 29.81 in 10.0 miles SSE 4.6 mph - N/A   Overcast
9:53 AM 45.0°F 42.1°F 90% 29.83 in 10.0 miles Calm Calm - N/A   Overcast
10:53 AM 50.0°F 44.6°F 82% 29.84 in 10.0 miles Calm Calm - N/A   Overcast
11:53 AM 50.0°F 44.1°F 80% 29.86 in 10.0 miles East 4.6 mph - N/A   Overcast
12:53 PM 50.0°F 44.1°F 80% 29.91 in 10.0 miles Variable 3.5 mph - N/A   Overcast
1:53 PM 53.1°F 43.0°F 69% 29.93 in 10.0 miles WNW 10.4 mph - N/A   Overcast
2:53 PM 51.8°F 42.8°F 71% 29.96 in 10.0 miles WNW 16.1 mph 25.3 mph N/A   Mostly Cloudy
3:53 PM 50.0°F 39.0°F 66% 30.01 in 10.0 miles West 15.0 mph 23.0 mph N/A   Clear
4:53 PM 48.9°F 37.0°F 64% 30.03 in 10.0 miles WNW 13.8 mph - N/A   Clear
5:53 PM 48.0°F 35.1°F 61% 30.05 in 10.0 miles WNW 11.5 mph - N/A   Partly Cloudy
6:53 PM 46.0°F 35.1°F 66% 30.07 in 10.0 miles NW 9.2 mph - N/A   Clear
7:53 PM 46.0°F 35.1°F 66% 30.07 in 10.0 miles WNW 10.4 mph - N/A   Clear
8:53 PM 45.0°F 34.0°F 65% 30.09 in 10.0 miles West 10.4 mph - N/A   Clear
9:53 PM 44.1°F 34.0°F 68% 30.11 in 10.0 miles West 11.5 mph - N/A   Clear
10:53 PM 44.1°F 34.0°F 68% 30.13 in 10.0 miles WSW 8.1 mph - N/A   Partly Cloudy
11:53 PM 43.0°F 34.0°F 71% 30.13 in 10.0 miles West 6.9 mph - N/A   Clear
Moon Phase
Jan. 07 Jan. 11 Jan. 18 Jan. 26 Feb. 03
Sunrise:08:03 AM (PST) Moon Rise:03:28 AM (PST)1/7
Sunset:04:38 PM (PST) Moon Set:12:57 PM (PST)1/7

Copyright © 2014 The Weather Underground, Inc.